Location: Chiroubles
(46.1812°N, 4.6660°E)
Time: 16:30:47
(UTC+00:00)

Transit 4A - Pass Details

Date: 01 December 2020
Orbit: 864 x 980 km, 66.8° (Epoch: 26 January)

Event Time Altitude Azimuth Distance (km) Brightness Sun altitude
Rises 09:57:23 0° 278° (W) 3,668 10.7 18.7°
Reaches altitude 10° 10:01:06 10° 299° (WNW) 2,733 10.0 19.0°
Maximum altitude 10:04:56 16° 336° (NNW) 2,317 9.5 19.2°
Drops below altitude 10° 10:08:47 10° 14° (NNE) 2,740 9.9 19.4°
Sets 10:12:32 0° 35° (NE) 3,683 10.7 19.7°
